Weather in Barnaul

Russia / Altai Krai     53°21′18″N   83°46′11″E
temp.,
°C
wind,
m/s
gust,
m/s
humid.,
%
clouds,
%
prec.,
mm/h
press.,
hPa
HPBL,
m
18 september, sat
sat1801:00+23ssw91820100 0.0 9961283
04:00+13w5127898 0.3 1001740
07:00+11wsw6107226 0.3 1005959
10:00+12wsw685824 0.0 10081257
13:00+15wsw57403 0.0 10081582
16:00+17wsw57335 0.0 10091938
19:00+14w473816 0.0 1010252
22:00+9wnw36495 0.0 101296
19 september, sun
sun1901:00+6nne126828 0.0 101217
04:00+6s1173100 0.0 101115
07:00+4s357476 0.0 101191
10:00+11ssw4847100 0.0 1009416
13:00+16sw5934100 0.0 10071635
16:00+17ssw61235100 0.0 10052014
19:00+16ssw51137100 0.0 1003581
22:00+9wnw4970100 0.0 1007523
20 september, mon
mon2001:00+5wsw49907 0.0 1009250
04:00+5wsw5118579 0.1 1010459
07:00+4sw511885 0.1 1014427
10:00+7wsw7105297 0.0 10151273
13:00+9wsw81145100 0.0 10151868
16:00+8wsw71253100 0.0 10151651
19:00+7wsw61060100 0.1 10151310
22:00+4wsw5107396 0.1 1016662
21 september, tue
tue2101:00+3wsw41076100 0.1 1016438
04:00+2wsw4108079 0.0 1017366
07:00+1wsw4985100 0.0 1018308
10:00+4w5767100 0.0 1019944
13:00+5w6760100 0.3 10191371
16:00+6w5752100 0.0 10201413
19:00+6w466799 0.1 1021793
22:00+2w359069 0.1 1023128
22 september, wed
wed2201:00+3w3788100 0.1 1023547
04:00+3wsw477794 0.0 1023573
07:00−1wsw349435 0.0 102488
10:00+4sw4570100 0.0 1024591
13:00+6sw4662100 0.2 10241242
16:00+7wsw4649100 0.1 10231544
19:00+6w225497 0.2 102289
22:00+3wsw116396 0.0 102215